Weather Roundup
Issued by NWS Sterling, VA

Current Version | Previous Version | Text Only | Print | Product List | Glossary On
Versions: 1 2 3 4 5 6 7 8 9 10 11 12 13 14 15 16 17 18 19 20 21 22 23 24 25 26 27 28 29 30 31 32 33 34 35 36 37 38 39 40 41 42 43 44 45 46 47 48 49 50
000
NZUS51 KLWX 091713
HRRLWX

HOURLY OBSERVATIONS AROUND THE LWX CWA
100 PM EDT SUN MAY 09 2021

Note: "FAIR" indicates few or no clouds below 12,000 feet
with no significant weather and/or obstructions to visibility.

 * =Non NWS site. Station does not report significant weather
    and/or obstructions to visibility.

...DOWNTOWN AREAS...

CITY           SKY/WX    TMP DP  RH WIND       PRES   REMARKS
WASHINGTON NAT PTSUNNY   61  39  44 SE10G18   30.04F


...WASHINGTON SUBURBS...

CITY           SKY/WX    TMP DP  RH WIND       PRES   REMARKS
DULLES         PTSUNNY   59  38  45 SE13G20   30.01F
MANASSAS*      PTSUNNY   64  40  41 S16G22    30.01F
LEESBURG*      CLOUDY    55  37  50 S10       30.02F
GAITHERSBURG*  CLOUDY    55  38  52 SE9       30.03F
FT BELVOIR     PTSUNNY   63  38  40 SE13G20   30.02F
QUANTICO       MOSUNNY   64  42  44 S16       30.04F
ANDREWS AFB    PTSUNNY   60  39  45 S10       30.02F
COLLEGE PARK*  CLOUDY    58  35  42 SE3       30.03F

...CENTRAL VIRGINIA...

CITY           SKY/WX    TMP DP  RH WIND       PRES   REMARKS
CULPEPER*      MOSUNNY   65  36  33 S12G21    30.02F
CHARLOTTESVILL MOSUNNY   67  39  35 SW16G23   30.00F
WARRENTON*     MOSUNNY   66  35  32 S13       30.01F
ORANGE*        MOSUNNY   64  41  42 S13G20    30.01F
GORDONSVILLE*  MOSUNNY   65  41  41 SW12G23   30.01F
STAFFORD*      MOSUNNY   66  28  23 S13G18    30.06F
FREDERICKSBRG* MOSUNNY   66  38  35 S12G21    30.02F
LOUISA*        MOSUNNY   65  40  40 SE9       30.06F
ASHLAND        SUNNY     67  44  43 SE9       30.04F
RICHMOND       MOSUNNY   69  44  40 S12G24    30.03F

...NORTHEAST/CENTRAL MARYLAND...

CITY           SKY/WX    TMP DP  RH WIND       PRES   REMARKS
BWI AIRPORT    PTSUNNY   59  38  45 SE9       30.03F
ANNAPOLIS      PTSUNNY   56  41  57 SE12      30.05F
MARTIN AIRPORT CLOUDY    55  41  58 E9        30.06
ABERDEEN*      CLOUDY    55  42  62 S7        30.05F
WESTMINSTER*   CLOUDY    54  43  66 SE6       30.03F
FREDERICK*     CLOUDY    54  43  66 CALM      30.03F
FORT MEADE*    CLOUDY    55  41  58 SE7       30.06F

...SOUTHERN MARYLAND...

CITY           SKY/WX    TMP DP  RH WIND       PRES   REMARKS
PATUXENT RIVER PTSUNNY   62  47  57 SE13      30.06F
ST MARYS CITY  SUNNY     66  44  45 SE13G18   30.05F

...MARYLAND EASTERN SHORE...

CITY           SKY/WX    TMP DP  RH WIND       PRES   REMARKS
SALISBURY      PTSUNNY   64  41  42 VRB7      30.07F
CAMBRIDGE*     MOSUNNY   63  39  42 VRB7      30.07F
OCEAN CITY     CLOUDY    59  43  55 SE9       30.09F
EASTON*        MOSUNNY   63  37  39 SE7       30.11F

...SHENANDOAH VALLEY...

CITY           SKY/WX    TMP DP  RH WIND       PRES   REMARKS
MARTINSBURG    CLOUDY    52  43  71 VRB7      29.97F
HAGERSTOWN APT CLOUDY    50  42  74 SE7       29.98F
STAUNTON*      MOSUNNY   65  37  35 S14G23    29.98F
WINCHESTER*    CLOUDY    55  37  50 SE12      29.95F
FRONT ROYAL*   PTSUNNY   61  37  41 S8G17     29.95F
LURAY*         MOSUNNY   63  36  36 S14G23    29.95F
NEW MARKET*    MOSUNNY   65  36  33 S15G25    29.94F
WAYNESBORO*    MOSUNNY   63  37  38 S12G23    29.98F

...APPALACHIANS...

CITY           SKY/WX    TMP DP  RH WIND       PRES   REMARKS
PETERSBURG WV* PTSUNNY   56  49  78 NW7       29.92F
CUMBERLAND*    LGT RAIN  47  44  86 CALM      29.99F
OAKLAND*       PTSUNNY   39  37  93 SE15G25   29.86F WCI  31
HOT SPRINGS*   PTSUNNY   55  37  52 S10G18    30.00F
ELKINS         PTSUNNY   68  40  35 S13G24    29.84F
BEDFORD PA*    CLOUDY    43  41  91 SE8       29.94F
JOHNSTOWN      LGT RAIN  39  35  86 SE8       29.90F FOG     WCI  33
ALTOONA        CLOUDY    42  37  82 NE3       29.95F

...SOUTHERN PENNSYLVANIA/DELAWARE...

CITY           SKY/WX    TMP DP  RH WIND       PRES   REMARKS
YORK           CLOUDY    48  40  73 CALM      30.05F
WILMINGTON     LGT RAIN  52  41  66 SW9       30.09F

...MARINE OBSERVATIONS...

STATION/POSITION TIME  TEMP    WIND        PRES
                       AIR SEA DIR/SP/G
                 (UTC) (F)     (DEG/KT/KT) (MB)
THOMAS PT LIGHT  1700   55 59  130/  9/ 11 1018.5F
TOLCHESTER       1630   54 60  240/  5/  8 1019.2F
COVE POINT       1630   56     110/  9/ 12 1018.6F
GOOSES REEF      1648   56 60              1018.8F
BALT HARBOR      1630   54 59  160/  4/  6 1018.1F
BALT KEY BRIDGE  1630   53     110/  6/  7 1018.4F
WASH DC CHANNEL  1630   59 66  190/  9/ 12 1017.9F
DAHLGREN         1630   61 63  130/ 10/ 12 1017.3F
LEWISETTA        1630   61 62  160/  8/ 13 1018.2F
SOLOMONS ISLAND  1630   57 62  120/ 11/ 14 1018.2F
PINEY POINT      1630          130/ 13/ 15   N/A
CAMBRIDGE PIER   1630   60 62  180/  7/  9 1018.6F
BISHOPS HEAD     1630   58 62  150/ 11/ 13 1018.6F
CHESAPEAKE CITY  1630   53 62  190/  4/  7 1019.1F




USA.gov is the U.S. government's official web portal to all federal, state and local government web resources and services.